Погода в Авдеевке

Россия / Тамбовская область     52°38′14″N   40°53′24″E
темп.,
°C
ветер,
м/с
пор.,
м/с
влажн.,
%
обл.,
%
осадки,
мм/ч
давл.,
гПа
погр.,
м
13 июня, вс
вс1300:00+15ю369336 0.4 100898
03:00+14ю36965 0.4 1008115
06:00+15ююз359517 0.0 1008186
09:00+19юз458485 0.4 1008496
12:00+21юз567217 1.9 10091205
15:00+22юз4570100 4.3 10091178
18:00+22юз23788 2.3 1009445
21:00+18ю2285100 3.0 101012
14 июня, пн
пн1400:00+16ююв22895 0.0 101120
03:00+15ю229242 0.0 101212
06:00+17ююв23897 0.0 101392
09:00+21ююз227748 0.2 1014392
12:00+24ссв21626 0.8 10151221
15:00+25в226120 1.1 10151329
18:00+22всв2379100 0.9 101483
21:00+19всв2287100 1.2 101518
15 июня, вт
вт1500:00+17всв2291100 0.0 101411
03:00+16в2396100 1.1 101464
06:00+17юв2397100 1.0 1014131
09:00+20з2286100 1.5 1014485
12:00+20юв2284100 0.2 1013432
15:00+18з2390100 1.8 1012162
18:00+20сз238448 0.1 1010317
21:00+18ссв239223 2.8 100950
16 июня, ср
ср1600:00+16ссв119196 0.3 100911
03:00+15с229289 0.3 100919
06:00+17сз24918 0.0 1009110
09:00+21сз348160 1.0 1009495
12:00+22сз457854 3.8 1009546
15:00+24сз67685 4.1 10091303
18:00+22ссз488314 1.1 1011458
21:00+18с410947 1.4 1012323
17 июня, чт
чт1700:00+16ссз3997100 0.0 1014242
03:00+15с5129675 0.0 1015432
06:00+14ссв5129227 0.0 1016402
09:00+18ссв710750 0.0 1017587
12:00+21ссв78660 0.0 10181009
15:00+21ссв79660 0.0 1019814
18:00+20ссв611740 0.0 1019515
21:00+16св411850 0.0 1020230